Temp
69 72 73 74 74 74 73 73 73 74 74 75 75 75 75 75 75 75 75 75 76 77 77 77 77 76 75 75 75 74 74 73 73 74 75 75 75 75 74 73 73 73 74
71 72 73 73 74 74 74 73 74 74 75 75 75 75 75 75 75 75 75 75 76 77 77 77 76 75 75 74 73 73 73 72 72 73 73 75 75 75 74 73 73 73 73
71 72 72 73 74 74 74 74 74 74 75 75 75 75 75 75 75 75 75 75 76 77 77 77 76 76 75 73 73 73 73 72 71 72 71 66 70 75 74 73 73 73 73
73 72 72 73 73 74 74 74 74 75 75 75 75 75 75 75 74 74 74 75 76 77 77 77 77 75 74 72 72 72 72 71 70 69 66 67 72 74 74 73 73 73 72
72 71 71 72 73 73 73 73 74 74 74 74 74 75 75 75 75 74 74 75 76 76 77 77 76 74 72 71 71 71 71 70 69 67 64 66 67 73 73 72 72 72 71
70 70 70 71 72 73 73 73 73 73 72 73 74 74 75 75 75 74 74 75 76 76 76 75 74 73 71 70 70 70 69 68 66 62 63 67 67 74 73 72 71 71 71
69 70 71 70 72 73 73 73 72 72 72 73 73 74 74 74 74 73 73 73 74 74 75 74 73 72 71 70 70 69 68 67 62 61 62 64 68 73 73 71 71 71 71
66 67 70 72 71 71 72 71 71 71 72 72 72 73 73 72 72 72 72 72 72 72 72 72 71 71 71 70 70 68 68 67 64 62 63 64 71 73 72 71 70 70 70
64 65 65 68 69 69 69 69 69 70 70 71 71 71 71 70 71 71 72 71 72 71 71 71 71 70 71 69 69 67 66 66 61 62 66 64 72 72 71 71 70 70 69
62 63 62 62 65 64 67 68 69 69 69 69 70 69 69 70 70 70 71 71 71 71 71 71 70 69 69 68 67 66 65 64 60 60 62 65 71 71 71 70 70 69 68
61 61 62 62 63 64 66 68 69 69 69 69 69 69 66 65 65 66 69 70 70 69 69 69 68 67 66 66 66 65 63 58 58 59 59 68 71 71 70 69 68 68 68
59 60 61 61 62 63 68 65 64 67 65 64 64 64 64 63 63 66 67 68 68 68 67 67 66 65 63 59 59 61 57 57 57 58 59 67 71 70 69 68 68 67 67
60 60 60 61 61 62 64 62 62 62 62 63 64 63 62 62 62 61 61 61 60 64 61 61 60 59 58 57 56 55 55 55 53 55 58 65 69 70 69 68 67 67 66
60 60 62 63 64 63 63 62 61 62 62 60 61 63 61 60 60 59 59 57 57 57 57 56 56 56 55 56 56 55 54 53 53 53 55 63 66 69 69 68 67 67 66
61 62 62 62 62 62 61 60 60 61 60 61 61 61 59 59 58 57 57 56 55 56 55 54 54 55 54 54 54 53 53 52 52 52 51 60 63 66 69 68 67 66 65
62 62 62 62 63 62 59 60 60 60 60 60 60 59 60 58 56 56 55 55 54 54 53 53 52 52 51 52 52 51 51 51 51 50 51 51 60 63 66 67 66 66 65
62 63 61 62 63 61 60 60 60 59 59 59 59 59 59 58 57 55 53 53 53 53 53 52 51 51 50 52 50 49 49 49 50 49 49 51 53 59 62 64 64 65 64
61 61 62 66 61 59 59 59 58 58 58 57 57 57 58 58 56 54 53 52 52 52 51 50 50 49 48 48 46 46 47 48 49 48 49 49 50 52 56 61 62 62 62
62 62 62 62 60 59 58 58 57 57 56 56 55 56 57 56 56 53 52 51 51 50 50 51 47 48 46 46 48 45 44 44 45 50 47 47 48 49 50 56 56 57 59
61 62 61 60 59 58 57 56 55 54 55 55 55 56 56 55 54 52 51 50 50 49 48 48 46 45 45 44 51 46 43 43 43 43 44 48 46 46 47 47 46 50 56
60 60 60 58 57 58 57 55 53 53 53 53 54 55 55 54 53 51 49 49 49 48 47 47 45 44 42 42 43 42 42 42 42 42 42 43 44 45 46 45 45 45 46
61 61 60 59 58 60 61 56 55 54 53 53 53 53 53 52 51 51 48 47 47 46 45 45 45 42 41 41 40 38 36 40 41 42 41 42 41 43 45 46 45 45 44
60 60 60 59 59 60 60 56 52 53 52 51 50 50 51 51 50 49 48 46 45 45 44 43 43 43 41 40 40 40 36 34 35 39 40 40 40 40 41 43 44 45 44
60 60 61 60 59 60 59 58 56 55 52 50 49 48 48 49 48 48 47 45 45 44 43 44 44 42 41 39 40 42 39 38 35 33 38 38 39 41 41 41 41 42 42
58 59 60 59 59 59 59 59 55 53 52 50 48 46 46 46 47 47 46 46 44 44 46 46 43 41 40 39 39 39 37 36 35 33 32 35 38 39 40 39 40 40 40
57 57 58 59 59 59 59 56 54 51 51 50 46 45 45 44 45 46 46 44 46 47 45 44 41 41 40 39 39 37 37 36 35 33 31 31 32 36 38 39 39 38 38
MSLP
1013.92 1014.33 1014.73 1014.91 1015.13 1015.50 1015.79 1016.05 1016.39 1016.85 1016.99 1017.16 1017.56 1017.94 1018.25 1018.38 1018.65 1018.77 1019.00 1018.86 1019.02 1019.14 1019.35 1019.44 1019.54 1019.74 1019.74 1020.03 1020.17 1020.39 1020.52 1020.66 1020.92 1020.82 1020.80 1020.77 1020.81 1020.79 1020.71 1020.75 1020.52 1020.39 1020.33
1013.14 1013.93 1014.56 1015.00 1015.08 1015.39 1015.75 1015.97 1016.23 1016.80 1017.25 1017.41 1017.82 1018.36 1018.72 1018.66 1019.04 1018.96 1019.22 1019.48 1019.40 1019.50 1019.49 1019.69 1019.73 1019.76 1020.04 1020.28 1020.57 1020.80 1020.98 1021.07 1021.24 1021.35 1021.35 1021.30 1021.15 1021.22 1021.26 1021.11 1020.78 1020.91 1020.84
1013.70 1014.02 1014.64 1015.04 1015.09 1015.33 1015.71 1016.04 1016.30 1016.45 1017.19 1017.76 1018.32 1018.73 1018.88 1019.05 1019.50 1019.39 1019.54 1019.87 1019.92 1019.82 1019.99 1019.81 1019.92 1020.18 1020.49 1020.48 1020.85 1020.96 1021.15 1021.39 1021.59 1021.63 1021.76 1021.92 1021.74 1021.56 1021.66 1021.39 1021.38 1021.27 1021.25
1013.84 1014.46 1014.75 1015.12 1015.26 1015.53 1015.96 1016.37 1016.58 1016.74 1017.14 1017.82 1018.37 1018.84 1019.14 1019.37 1019.65 1019.89 1020.03 1020.26 1020.23 1020.45 1020.47 1020.23 1020.46 1020.54 1020.81 1020.83 1021.10 1021.25 1021.48 1021.71 1021.87 1022.02 1022.14 1022.15 1022.09 1021.97 1021.86 1021.69 1021.59 1021.77 1021.77
1014.27 1014.77 1015.04 1015.28 1015.58 1015.77 1016.15 1016.49 1016.91 1016.97 1017.52 1018.12 1018.65 1019.01 1019.50 1019.69 1019.78 1020.14 1020.31 1020.61 1020.67 1020.62 1020.75 1020.67 1020.70 1020.96 1020.95 1021.08 1021.30 1021.58 1021.88 1022.13 1022.25 1022.22 1022.39 1022.42 1022.28 1022.16 1022.15 1022.08 1022.07 1021.95 1021.91
1014.68 1015.01 1015.27 1015.60 1015.92 1016.12 1016.30 1016.40 1017.38 1017.22 1017.87 1018.58 1018.83 1019.32 1019.87 1019.99 1020.14 1020.24 1020.36 1020.67 1021.03 1020.91 1021.38 1020.96 1021.28 1021.39 1021.34 1021.57 1021.64 1022.00 1022.27 1022.46 1022.59 1022.84 1022.77 1022.62 1022.46 1022.32 1022.21 1022.33 1022.27 1022.26 1022.12
1015.01 1015.19 1015.43 1015.73 1016.01 1016.29 1016.84 1016.91 1017.79 1017.61 1018.34 1018.76 1019.18 1019.68 1020.13 1020.29 1020.53 1020.83 1020.74 1021.05 1021.24 1021.58 1021.67 1021.60 1021.72 1021.68 1021.72 1021.86 1022.02 1022.23 1022.54 1022.88 1023.02 1023.00 1023.03 1022.94 1022.75 1022.70 1022.55 1022.72 1022.80 1022.56 1022.32
1015.30 1015.57 1015.84 1015.84 1016.54 1016.63 1017.79 1017.47 1018.14 1018.39 1018.95 1018.99 1019.60 1020.00 1020.41 1020.66 1020.95 1021.04 1021.23 1021.38 1021.60 1021.65 1021.89 1021.96 1021.90 1021.93 1022.10 1022.02 1022.18 1022.46 1022.73 1022.96 1023.10 1023.39 1023.34 1023.27 1022.96 1022.99 1023.09 1023.17 1023.11 1023.01 1022.87
1015.84 1016.13 1016.46 1016.52 1016.89 1018.06 1018.02 1018.55 1018.49 1019.01 1019.04 1019.52 1019.95 1020.35 1020.66 1020.83 1021.09 1021.26 1021.47 1021.53 1021.89 1021.98 1021.99 1021.89 1022.11 1022.01 1022.17 1022.37 1022.70 1022.86 1023.06 1023.27 1023.52 1023.59 1023.36 1023.40 1023.04 1023.26 1023.62 1023.49 1023.44 1023.49 1023.46
1016.50 1016.88 1016.91 1017.00 1017.55 1018.37 1018.40 1019.07 1019.25 1019.20 1019.15 1019.67 1020.32 1020.58 1020.85 1021.13 1021.36 1021.42 1021.90 1021.96 1022.21 1022.23 1022.23 1022.34 1022.57 1022.59 1022.65 1022.65 1022.94 1023.29 1023.49 1023.66 1023.86 1024.02 1023.87 1023.65 1023.53 1023.42 1023.74 1023.72 1023.68 1023.85 1023.72
1017.26 1017.50 1017.78 1018.21 1018.89 1019.15 1019.19 1019.72 1019.64 1019.52 1019.60 1019.91 1020.60 1021.02 1021.14 1021.45 1021.63 1021.80 1022.14 1022.26 1022.42 1022.44 1022.47 1022.74 1022.92 1023.18 1023.17 1023.26 1023.43 1023.70 1023.92 1024.19 1024.36 1024.36 1024.46 1023.88 1023.89 1023.73 1023.90 1024.04 1024.09 1024.16 1024.10
1017.80 1018.25 1018.57 1018.95 1019.38 1019.57 1019.76 1019.73 1019.53 1019.61 1020.08 1020.54 1021.08 1021.38 1021.51 1021.63 1021.81 1022.10 1022.30 1022.34 1022.46 1022.76 1023.06 1023.17 1023.30 1023.58 1023.69 1023.96 1024.04 1024.22 1024.60 1024.58 1024.59 1024.64 1024.67 1024.21 1023.97 1023.99 1024.11 1024.41 1024.47 1024.41 1024.48
1017.90 1018.34 1018.70 1019.42 1019.68 1019.66 1019.87 1020.24 1020.45 1020.45 1020.85 1021.06 1021.37 1021.58 1021.78 1021.89 1022.19 1022.33 1022.62 1022.83 1023.02 1023.17 1023.55 1023.52 1023.85 1024.21 1024.29 1024.46 1024.51 1024.70 1024.79 1024.83 1025.10 1025.09 1024.80 1024.41 1024.23 1024.33 1024.24 1024.41 1024.69 1024.77 1024.73
1018.65 1018.72 1019.07 1019.40 1019.82 1019.99 1020.04 1020.30 1020.44 1020.72 1020.73 1021.21 1021.77 1021.65 1021.85 1022.20 1022.42 1022.67 1023.04 1023.37 1023.64 1023.88 1024.13 1024.36 1024.57 1024.64 1024.74 1024.87 1024.73 1025.20 1025.22 1025.18 1025.02 1025.30 1025.22 1024.81 1024.63 1024.42 1024.31 1024.53 1024.83 1025.00 1025.01
1018.43 1018.64 1019.25 1019.55 1019.68 1019.96 1020.17 1020.61 1020.93 1021.07 1021.10 1021.37 1021.63 1021.99 1021.78 1022.33 1022.82 1023.26 1023.47 1023.67 1023.97 1024.36 1024.60 1024.86 1025.06 1024.99 1025.35 1025.38 1025.31 1025.56 1025.61 1025.52 1025.33 1025.33 1025.38 1025.08 1025.02 1024.73 1024.41 1024.61 1024.89 1025.05 1025.33
1018.68 1019.06 1019.25 1019.37 1019.62 1020.00 1020.37 1020.75 1020.76 1021.23 1021.22 1021.36 1021.90 1022.27 1022.14 1022.70 1023.03 1023.34 1023.80 1024.14 1024.35 1024.62 1025.04 1025.21 1025.39 1025.38 1025.82 1025.61 1025.76 1025.87 1026.08 1025.96 1025.70 1025.54 1025.54 1025.43 1025.31 1024.91 1024.62 1024.74 1024.97 1025.12 1025.42
1018.59 1019.10 1019.27 1019.47 1019.61 1019.99 1020.52 1020.84 1020.94 1021.37 1021.40 1021.65 1022.06 1022.27 1022.43 1022.82 1023.24 1023.48 1023.96 1024.59 1024.82 1025.01 1025.15 1025.42 1025.52 1025.65 1025.86 1025.95 1026.30 1026.40 1026.47 1026.28 1026.03 1025.92 1025.83 1025.78 1025.62 1025.28 1025.03 1025.08 1025.25 1025.41 1025.53
1018.43 1018.64 1018.86 1019.02 1019.53 1020.02 1020.46 1020.73 1020.99 1021.35 1021.54 1021.95 1022.14 1022.40 1022.58 1022.78 1023.14 1023.72 1024.26 1024.83 1025.14 1025.25 1025.25 1025.61 1025.85 1026.16 1026.32 1026.49 1026.79 1026.95 1026.79 1026.46 1026.27 1026.30 1026.21 1026.04 1025.89 1025.81 1025.72 1025.63 1025.71 1025.86 1025.93
1017.90 1018.23 1018.68 1019.15 1019.51 1020.16 1020.57 1020.97 1021.25 1021.52 1021.90 1022.02 1022.21 1022.50 1022.70 1022.83 1023.47 1023.91 1024.59 1025.06 1025.35 1025.54 1025.54 1025.83 1026.65 1026.38 1026.83 1027.08 1027.12 1027.28 1027.15 1027.06 1026.98 1026.81 1026.64 1026.46 1026.37 1026.33 1026.33 1026.28 1026.40 1026.38 1026.26
1017.85 1018.28 1018.66 1019.12 1019.57 1020.08 1020.46 1021.12 1021.68 1021.83 1021.91 1022.03 1022.32 1022.38 1022.87 1023.27 1023.77 1024.24 1024.86 1025.43 1025.53 1025.63 1026.02 1026.54 1026.77 1027.00 1027.24 1027.22 1027.25 1027.47 1027.64 1027.72 1027.61 1027.47 1027.25 1026.90 1026.87 1026.90 1026.92 1026.91 1026.93 1026.86 1026.68
1017.61 1017.90 1018.25 1018.82 1019.17 1019.64 1020.25 1021.12 1021.85 1021.79 1022.05 1022.50 1022.50 1022.73 1023.19 1023.47 1023.98 1024.60 1025.05 1025.55 1025.69 1026.08 1026.54 1026.75 1027.18 1027.48 1027.62 1027.34 1027.46 1027.95 1028.03 1027.98 1027.99 1027.99 1027.75 1027.58 1027.41 1027.45 1027.35 1027.31 1027.31 1027.27 1027.14
1016.83 1017.26 1017.77 1018.32 1018.92 1019.47 1019.78 1020.35 1020.82 1021.69 1022.23 1022.25 1022.56 1022.94 1023.27 1023.78 1024.33 1024.76 1025.05 1025.60 1025.85 1026.31 1026.94 1027.11 1026.95 1027.18 1027.66 1027.70 1027.88 1028.18 1028.47 1028.31 1028.19 1028.09 1027.93 1027.81 1027.92 1027.76 1027.60 1027.42 1027.36 1027.38 1027.43
1016.28 1016.56 1017.04 1017.59 1018.29 1018.96 1019.65 1020.20 1020.83 1021.51 1022.08 1022.61 1022.95 1023.26 1023.66 1023.91 1024.33 1024.69 1025.17 1025.71 1026.24 1026.73 1027.11 1027.07 1026.68 1026.50 1027.36 1027.95 1027.95 1028.13 1028.76 1028.96 1028.78 1028.38 1028.26 1028.15 1028.15 1028.02 1027.96 1027.73 1027.63 1027.55 1027.58
1015.81 1016.34 1016.75 1017.04 1017.60 1018.38 1019.01 1019.66 1020.12 1020.67 1021.68 1022.38 1022.84 1023.58 1024.07 1024.13 1024.47 1024.95 1025.41 1025.84 1026.16 1026.42 1026.77 1026.58 1026.54 1026.88 1026.98 1027.97 1028.18 1028.08 1028.30 1028.67 1029.02 1029.07 1028.60 1028.35 1028.20 1028.02 1027.78 1027.71 1027.68 1027.68 1027.71
1015.06 1015.59 1016.60 1017.62 1017.95 1018.48 1018.50 1019.08 1019.83 1020.79 1021.37 1022.21 1023.10 1023.82 1024.26 1024.46 1024.60 1025.04 1025.42 1025.71 1026.00 1025.96 1026.13 1025.90 1026.42 1026.91 1027.35 1027.91 1028.29 1028.34 1028.52 1028.82 1029.04 1029.40 1029.20 1028.75 1028.33 1027.96 1027.77 1027.78 1027.81 1027.80 1027.79
1014.78 1015.52 1016.61 1017.08 1017.47 1018.06 1018.39 1018.87 1019.61 1020.55 1021.55 1022.44 1023.28 1023.82 1024.22 1024.43 1024.85 1025.25 1025.46 1025.56 1025.46 1025.34 1025.66 1025.93 1026.52 1026.90 1027.39 1027.71 1028.10 1028.31 1028.52 1028.75 1028.89 1029.16 1029.37 1029.04 1028.89 1028.24 1027.83 1027.67 1027.82 1027.94 1027.87
Wind_Speed
12 14 20 21 22 22 21 22 21 21 21 22 21 20 19 20 19 19 18 20 20 20 21 20 18 15 15 13 14 15 16 17 15 15 16 18 18 19 18 17 16 13 18
16 16 20 21 22 22 22 22 22 21 21 21 21 19 18 19 18 19 19 19 20 20 22 21 19 19 16 15 15 15 16 15 14 15 16 17 18 18 18 18 18 14 17
14 14 15 20 22 22 22 22 23 24 22 21 20 18 19 19 17 18 19 19 19 21 22 22 22 22 21 20 16 15 14 13 13 14 13 5 7 18 18 19 18 18 17
13 12 13 18 20 21 20 20 21 23 22 21 19 18 18 18 18 17 17 18 20 20 23 23 22 20 19 17 16 15 14 15 14 13 6 6 7 17 18 18 19 18 18
11 10 10 16 18 21 21 20 20 22 21 19 18 19 18 18 19 17 16 17 19 20 21 20 20 18 16 14 15 15 15 14 13 9 6 5 4 13 17 17 15 17 18
9 7 11 17 18 20 20 21 18 21 19 18 18 17 17 17 19 16 15 16 16 19 18 18 17 15 14 14 16 15 14 13 11 6 6 7 5 13 15 15 15 15 16
5 7 12 16 19 20 18 19 16 19 17 17 17 17 16 16 16 13 13 13 12 13 15 15 14 14 15 14 15 14 13 12 6 6 5 5 5 13 14 14 14 15 16
7 1 7 17 14 16 13 18 16 15 15 16 16 16 15 15 13 12 11 10 9 10 11 14 13 12 13 14 13 12 11 9 7 5 5 4 10 12 13 13 13 14 15
13 10 7 10 16 13 13 11 14 14 15 14 14 14 14 12 11 11 9 9 8 9 10 12 13 12 12 12 11 10 10 10 6 3 4 3 11 12 12 13 14 14 14
15 12 17 16 12 5 7 10 9 12 14 14 13 13 12 11 10 10 8 9 9 10 10 11 12 13 12 12 11 12 11 10 6 4 3 2 9 11 11 12 13 13 14
15 17 14 15 4 5 6 5 8 11 12 13 11 11 8 4 6 7 7 9 8 10 12 12 13 14 14 14 14 12 10 4 4 3 3 4 7 9 10 10 11 11 12
16 15 10 8 4 3 2 4 5 6 5 5 5 5 4 5 5 5 6 10 12 14 13 14 15 15 12 6 5 10 4 5 4 3 3 8 5 7 8 8 10 10 12
16 13 14 9 6 4 1 3 2 3 3 3 5 5 4 4 3 4 3 3 5 9 5 7 7 6 8 5 5 5 5 5 3 3 4 9 9 3 6 7 8 10 11
13 18 15 14 11 4 3 3 3 3 3 4 4 5 4 3 4 4 3 4 4 4 6 5 4 6 7 6 7 6 6 4 3 3 5 9 8 6 2 6 7 9 10
16 16 15 6 4 5 4 3 3 2 3 4 3 3 4 4 4 4 4 4 5 4 4 5 5 5 5 5 6 6 6 6 6 3 3 9 8 7 2 4 6 8 10
11 10 6 4 4 5 4 5 4 3 3 4 4 4 6 4 5 4 4 4 5 4 4 4 4 5 4 5 6 6 5 5 5 6 3 4 12 11 5 6 6 6 7
8 6 6 5 6 6 6 5 4 3 4 4 4 5 6 5 5 6 5 4 4 4 6 5 5 5 5 4 6 5 4 5 5 5 4 3 4 12 11 7 7 6 6
7 8 7 6 6 6 6 4 4 4 3 4 4 4 6 6 7 5 5 4 4 4 4 4 4 4 4 4 3 4 4 4 5 5 4 3 4 5 9 13 10 8 6
9 7 7 7 8 7 6 4 5 5 3 3 4 4 6 7 6 6 5 4 4 4 5 4 4 3 3 2 3 3 3 4 5 3 6 6 6 5 4 9 11 11 10
7 7 7 6 7 7 5 4 3 3 2 3 4 4 6 5 7 6 5 5 4 5 5 3 3 4 2 1 2 4 3 3 4 4 4 5 5 6 5 5 4 5 11
8 8 9 9 8 8 4 4 3 4 2 2 3 6 6 6 6 6 5 5 5 5 4 2 2 2 2 2 2 2 3 4 5 3 3 4 5 4 5 4 3 2 3
12 11 10 10 11 10 8 3 4 4 2 3 3 5 6 7 6 6 6 5 6 5 4 2 4 3 2 3 3 2 3 3 3 2 2 2 3 3 3 4 4 4 3
15 15 14 13 13 12 9 6 4 4 4 3 2 4 3 6 7 7 7 6 6 4 4 3 3 5 4 3 4 4 2 2 2 2 2 2 3 2 2 2 3 2 3
12 10 12 14 15 11 11 9 8 7 6 3 4 3 4 6 7 7 7 6 6 5 4 3 3 3 4 2 1 2 2 3 3 4 2 3 3 3 3 2 1 2 3
11 12 8 6 8 9 11 10 7 5 4 3 5 7 6 5 7 7 7 6 5 4 4 5 5 5 3 3 2 1 1 2 2 2 3 4 3 3 3 3 2 2 3
7 8 10 10 12 9 11 9 9 10 8 7 5 6 4 4 4 5 6 6 6 5 5 5 5 5 3 3 2 2 3 3 3 3 3 4 3 3 2 3 2 2 2
Wind_Direction
151 145 141 137 131 128 127 125 123 122 120 117 117 118 117 112 112 108 106 105 104 101 98 90 84 80 81 88 93 89 79 72 63 65 68 65 63 62 61 57 48 47 46
143 144 141 139 133 130 128 127 124 122 118 116 117 118 117 114 113 112 106 104 104 100 94 85 79 76 83 98 100 98 86 82 76 72 61 61 67 64 60 58 56 50 49
139 137 138 140 136 133 131 129 126 123 119 118 119 122 120 117 116 111 108 105 98 95 91 86 84 85 84 92 101 104 95 79 70 68 63 43 61 65 62 60 57 55 52
134 135 142 144 137 131 127 125 124 123 122 125 126 122 121 121 117 109 105 101 97 96 92 87 84 86 85 88 96 99 93 86 79 72 59 48 56 66 66 64 61 57 51
135 140 151 139 133 129 129 129 131 128 126 125 127 126 125 123 115 107 102 100 100 100 98 96 90 88 91 93 94 91 89 83 74 69 62 65 59 62 61 63 63 60 57
129 138 149 141 137 134 136 133 137 126 124 130 124 126 127 119 115 109 107 104 103 101 102 93 91 85 84 90 99 97 94 89 81 62 53 45 59 64 63 61 59 60 60
127 158 160 142 142 135 133 126 131 122 123 125 124 121 123 119 116 110 102 98 91 97 96 94 95 85 84 98 106 101 98 95 91 78 66 48 53 64 65 62 62 63 63
56 201 183 139 137 125 127 118 120 108 124 117 121 121 119 117 114 109 104 97 85 75 79 81 79 90 85 94 108 103 98 86 74 71 62 41 65 66 67 65 63 62 63
60 55 47 127 110 104 100 105 114 128 114 114 117 120 121 122 121 114 107 103 96 83 75 79 88 96 93 94 111 102 96 90 84 73 67 51 78 74 74 75 72 69 67
75 76 71 51 86 58 80 99 110 116 111 112 120 126 128 121 117 111 106 99 90 84 76 68 78 89 90 80 79 74 66 66 64 58 46 77 84 87 82 78 75 72 70
88 86 83 85 358 12 66 91 91 103 115 116 120 123 98 109 111 102 111 96 95 85 84 79 75 81 77 71 70 64 61 49 50 36 357 35 79 90 90 86 83 83 84
106 108 102 108 48 328 109 76 59 80 84 104 119 128 116 111 113 114 98 84 95 86 80 77 72 71 74 63 61 62 50 42 38 18 348 354 46 97 96 84 83 81 76
130 130 128 132 154 262 277 109 98 95 98 91 126 129 114 96 95 84 76 74 69 74 65 65 66 58 66 62 56 57 58 55 39 12 347 0 2 91 115 99 92 85 79
146 138 143 173 192 180 164 132 119 143 135 134 179 144 131 120 101 104 95 79 75 61 79 65 68 68 59 56 65 59 50 50 44 23 3 356 355 0 130 122 96 86 77
166 162 186 179 171 146 119 132 139 151 155 162 135 162 130 121 109 101 91 83 82 76 79 72 69 72 64 57 60 60 50 42 36 25 0 1 352 349 354 125 105 92 78
169 182 178 175 176 150 140 160 146 160 146 127 133 131 100 113 119 104 95 90 85 88 83 96 94 81 69 64 57 49 54 47 38 28 6 11 25 27 40 103 101 99 96
178 177 191 187 172 153 161 163 145 148 129 117 119 122 123 117 114 112 103 98 106 105 107 90 74 68 61 55 60 57 60 54 51 36 29 50 45 47 57 88 93 88 79
180 192 190 188 164 147 156 156 139 147 136 138 130 125 129 122 120 109 108 108 126 110 96 81 71 63 54 44 55 40 51 56 58 45 46 49 55 49 44 64 73 65 45
189 185 184 169 161 154 146 152 144 144 151 140 129 134 130 119 122 113 117 117 110 97 77 75 52 78 50 24 98 57 47 50 39 41 52 52 53 53 50 52 47 44 37
179 181 172 157 152 147 133 117 102 123 126 120 136 119 129 120 122 115 107 113 106 83 75 69 88 47 114 147 77 57 42 43 32 40 48 59 50 46 47 56 53 44 50
179 176 174 161 162 149 141 144 156 155 125 140 132 133 128 121 119 115 104 100 86 89 88 96 115 132 42 21 72 35 12 40 40 28 35 39 43 38 55 51 50 44 28
194 191 175 176 167 175 173 148 142 143 143 118 116 100 117 121 115 114 115 110 103 97 99 157 180 132 85 3 121 118 19 341 11 7 24 29 32 18 37 62 58 57 61
196 193 187 178 175 178 170 131 87 86 66 75 90 101 115 120 122 116 105 103 110 124 149 182 142 114 122 38 58 126 36 268 328 328 318 354 349 2 319 21 31 49 45
198 189 190 181 174 173 166 164 169 169 154 168 135 118 121 116 106 110 121 121 131 142 135 132 112 90 99 107 8 70 93 145 200 319 331 304 318 260 259 274 305 333 1
175 187 175 154 173 181 172 174 164 134 109 122 117 126 118 111 122 123 126 141 137 133 134 117 91 92 83 124 174 162 55 42 91 161 279 305 329 276 283 269 277 315 4
170 155 141 155 202 185 178 163 156 139 139 142 146 144 148 124 114 129 141 145 145 135 119 100 104 106 132 132 159 162 170 183 206 197 229 258 240 288 290 285 308 351 8